Asheboro, NC

8:02 PM EDT on July 21, 2017 (GMT -0400)
Asheboro Municipal

Weather History for KHBI - January, 2012

Change the Weather History Date:

Wednesday, January 18, 2012

  Actual Average Record
Temperature  
Mean Temperature 46 °F -  
Max Temperature 55 °F 48 °F 75 °F (1943)
Min Temperature 37 °F 30 °F 10 °F (1977)
Degree Days  
Heating Degree Days 19    
Moisture  
Dew Point 33 °F    
Average Humidity 63    
Maximum Humidity 100    
Minimum Humidity 37    
Precipitation  
Precipitation 0.09 in - - ()
Sea Level Pressure  
Sea Level Pressure 30.02 in    
Wind  
Wind Speed 8 mph (NNW)    
Max Wind Speed 14 mph    
Max Gust Speed 23 mph    
Visibility 10 miles    
Events Rain    
Averages and records for this station are not official NWS values.
T = Trace of Precipitation, MM = Missing Value Source: NWS Daily Summary

Daily Weather History Graph

Daily Weather History Graph

Search for Another Location

Airport or City:

Trip Planner

Search our weather history database for the weather conditions in past years. The results will help you decide how hot, cold, wet, or windy it might be!

Date:

Astronomy

Jan. 18, 2012 Rise Set
Actual Time 7:27 AM EST 5:32 PM EST
Civil Twilight 7:00 AM EST 5:59 PM EST
Nautical Twilight 6:28 AM EST 6:31 PM EST
Astronomical Twilight 5:58 AM EST 7:01 PM EST
Moon 2:54 AM EST (1/18) 1:11 PM EST (1/18)
Length of Visible Light 10h 59m
Length of Day
10h 04m
Waning Crescent, 25% of the Moon is Illuminated
Jan 18
Waning Crescent
Jan 23
New
Jan 30
First Quarter
Feb 7
Full
Feb 14
Last Quarter

Hourly Weather History & Observations

Time (EST) Temp. Windchill Dew Point Humidity Pressure Visibility Wind Dir Wind Speed Gust Speed Precip Events Conditions
12:15 AM 55.4 °F - 53.6 °F 94% 29.91 in 10.0 mi SW 10.4 mph - N/A   Mostly Cloudy
12:35 AM 55.4 °F - 53.6 °F 94% 29.92 in 10.0 mi SW 11.5 mph 19.6 mph N/A   Drizzle
12:55 AM 55.4 °F - 53.6 °F 94% 29.92 in 10.0 mi SW 8.1 mph 17.3 mph N/A Rain Light Rain
1:15 AM 53.6 °F - 53.6 °F 100% 29.92 in 5.0 mi SW 9.2 mph - 0.01 in   Heavy Drizzle
1:35 AM 53.6 °F - 53.6 °F 100% 29.92 in 5.0 mi SW 6.9 mph - 0.02 in   Drizzle
1:55 AM 53.6 °F - 53.6 °F 100% 29.92 in 5.0 mi WSW 3.5 mph - 0.04 in Rain Heavy Rain
2:15 AM 53.6 °F - 53.6 °F 100% 29.92 in 7.0 mi SW 4.6 mph - N/A Rain Rain
2:55 AM 53.6 °F - 53.6 °F 100% 29.90 in 10.0 mi SW 5.8 mph - 0.01 in   Light Drizzle
3:15 AM 53.6 °F - 53.6 °F 100% 29.90 in 10.0 mi SW 4.6 mph - N/A   Overcast
3:35 AM 53.6 °F - 53.6 °F 100% 29.91 in 10.0 mi West 4.6 mph - N/A   Overcast
3:55 AM 53.6 °F - 53.6 °F 100% 29.91 in 10.0 mi Calm Calm - N/A Rain Light Rain
4:15 AM 53.6 °F - 53.6 °F 100% 29.91 in 10.0 mi Calm Calm - N/A   Drizzle
4:35 AM 53.6 °F - 53.6 °F 100% 29.91 in 10.0 mi NW 3.5 mph - 0.02 in Rain Rain
4:55 AM 50.0 °F - 44.6 °F 82% 29.92 in 10.0 mi NNW 9.2 mph - 0.04 in Rain Light Rain
5:15 AM 50.0 °F - 44.6 °F 82% 29.94 in 10.0 mi NNW 3.5 mph - N/A   Overcast
5:35 AM 50.0 °F - 42.8 °F 76% 29.96 in 10.0 mi North 8.1 mph - N/A Rain Light Rain
5:55 AM 48.2 °F - 37.4 °F 66% 29.97 in 10.0 mi North 12.7 mph 17.3 mph N/A   Overcast
6:15 AM 46.4 °F 40.4 °F 33.8 °F 62% 29.98 in 10.0 mi NNW 13.8 mph 18.4 mph N/A   Mostly Cloudy
6:35 AM 44.6 °F 39.2 °F 33.8 °F 66% 29.99 in 10.0 mi NNW 10.4 mph 17.3 mph N/A   Mostly Cloudy
6:55 AM 44.6 °F 38.8 °F 32.0 °F 61% 30.01 in 10.0 mi North 11.5 mph 23.0 mph N/A   Scattered Clouds
7:15 AM 42.8 °F 37.0 °F 32.0 °F 66% 30.02 in 10.0 mi North 10.4 mph 16.1 mph N/A   Clear
7:35 AM 42.8 °F 38.0 °F 30.2 °F 61% 30.04 in 10.0 mi North 8.1 mph - N/A   Clear
7:55 AM 41.0 °F 35.8 °F 28.4 °F 61% 30.05 in 10.0 mi North 8.1 mph - N/A   Clear
8:15 AM 41.0 °F 37.1 °F 28.4 °F 61% 30.06 in 10.0 mi North 5.8 mph - N/A   Clear
8:35 AM 41.0 °F 35.2 °F 28.4 °F 61% 30.07 in 10.0 mi North 9.2 mph - N/A   Clear
8:55 AM 41.0 °F 35.2 °F 28.4 °F 61% 30.07 in 10.0 mi North 9.2 mph - N/A   Clear
9:15 AM 41.0 °F 35.8 °F 28.4 °F 61% 30.08 in 10.0 mi North 8.1 mph 18.4 mph N/A   Clear
9:35 AM 42.8 °F 36.2 °F 26.6 °F 53% 30.08 in 10.0 mi North 12.7 mph 18.4 mph N/A   Clear
9:55 AM 42.8 °F 36.6 °F 26.6 °F 53% 30.09 in 10.0 mi North 11.5 mph - N/A   Clear
10:15 AM 42.8 °F 36.6 °F 26.6 °F 53% 30.09 in 10.0 mi North 11.5 mph - N/A   Clear
10:35 AM 42.8 °F 40.1 °F 26.6 °F 53% 30.09 in 10.0 mi NNW 4.6 mph 16.1 mph N/A   Clear
10:55 AM 44.6 °F 39.7 °F 26.6 °F 49% 30.10 in 10.0 mi NNW 9.2 mph - N/A   Clear
11:15 AM 44.6 °F 39.2 °F 26.6 °F 49% 30.09 in 10.0 mi North 10.4 mph - N/A   Clear
11:35 AM 44.6 °F 39.7 °F 26.6 °F 49% 30.09 in 10.0 mi NW 9.2 mph - N/A   Clear
11:55 AM 44.6 °F 39.7 °F 26.6 °F 49% 30.08 in 10.0 mi NNE 9.2 mph - N/A   Clear
12:15 PM 44.6 °F 40.7 °F 26.6 °F 49% 30.07 in 10.0 mi NNW 6.9 mph - N/A   Clear
12:35 PM 44.6 °F 40.2 °F 26.6 °F 49% 30.06 in 10.0 mi NNW 8.1 mph - N/A   Clear
12:55 PM 44.6 °F 43.1 °F 26.6 °F 49% 30.05 in 10.0 mi North 3.5 mph - N/A   Clear
1:15 PM 46.4 °F 42.4 °F 26.6 °F 46% 30.05 in 10.0 mi NNE 8.1 mph - N/A   Clear
1:35 PM 46.4 °F 42.9 °F 24.8 °F 43% 30.04 in 10.0 mi ENE 6.9 mph - N/A   Clear
1:55 PM 46.4 °F 42.9 °F 24.8 °F 43% 30.04 in 10.0 mi NNE 6.9 mph - N/A   Clear
2:15 PM 46.4 °F 41.9 °F 23.0 °F 40% 30.04 in 10.0 mi North 9.2 mph - N/A   Clear
2:35 PM 46.4 °F 41.9 °F 23.0 °F 40% 30.04 in 10.0 mi North 9.2 mph - N/A   Clear
2:55 PM 46.4 °F 41.5 °F 21.2 °F 37% 30.05 in 10.0 mi North 10.4 mph - N/A   Clear
3:15 PM 46.4 °F 41.9 °F 21.2 °F 37% 30.05 in 10.0 mi NNE 9.2 mph - N/A   Clear
3:35 PM 46.4 °F 42.9 °F 21.2 °F 37% 30.05 in 10.0 mi NE 6.9 mph - N/A   Clear
3:55 PM 46.4 °F 42.9 °F 21.2 °F 37% 30.05 in 10.0 mi NNE 6.9 mph - N/A   Clear
4:15 PM 46.4 °F 43.5 °F 21.2 °F 37% 30.06 in 10.0 mi NNE 5.8 mph - N/A   Clear
4:35 PM 46.4 °F 45.2 °F 21.2 °F 37% 30.06 in 10.0 mi NNE 3.5 mph - N/A   Clear
4:55 PM 46.4 °F 44.3 °F 21.2 °F 37% 30.07 in 10.0 mi NNE 4.6 mph - N/A   Clear
5:15 PM 44.6 °F 43.1 °F 19.4 °F 37% 30.08 in 10.0 mi NNE 3.5 mph - N/A   Clear
5:35 PM 44.6 °F - 19.4 °F 37% 30.09 in 10.0 mi Calm Calm - N/A   Clear
5:55 PM 41.0 °F - 24.8 °F 53% 30.10 in 10.0 mi Calm Calm - N/A   Clear
6:15 PM 41.0 °F - 21.2 °F 45% 30.10 in 10.0 mi Calm Calm - N/A   Clear
6:35 PM 37.4 °F - 26.6 °F 65% 30.11 in 10.0 mi Calm Calm - N/A   Clear
6:55 PM 39.2 °F - 23.0 °F 52% 30.11 in 10.0 mi Calm Calm - N/A   Clear
7:15 PM 41.0 °F 39.0 °F 21.2 °F 45% 30.09 in 10.0 mi ENE 3.5 mph - N/A   Clear
7:35 PM 39.2 °F - 21.2 °F 49% 30.10 in 10.0 mi Calm Calm - N/A   Clear
7:55 PM 37.4 °F 33.8 °F 23.0 °F 56% 30.11 in 10.0 mi NNE 4.6 mph - N/A   Clear
8:15 PM 37.4 °F - 23.0 °F 56% 30.11 in 10.0 mi Calm Calm - N/A   Clear
8:35 PM 37.4 °F 32.8 °F 21.2 °F 52% 30.11 in 10.0 mi NNE 5.8 mph - N/A   Clear
8:55 PM 37.4 °F 32.8 °F 21.2 °F 52% 30.11 in 10.0 mi NNE 5.8 mph - N/A   Clear
9:15 PM 37.4 °F 31.4 °F 21.2 °F 52% 30.11 in 10.0 mi North 8.1 mph - N/A   Clear
9:35 PM 35.6 °F 30.7 °F 21.2 °F 56% 30.13 in 10.0 mi North 5.8 mph - N/A   Clear
9:55 PM 35.6 °F 31.7 °F 21.2 °F 56% 30.14 in 10.0 mi North 4.6 mph - N/A   Clear
10:15 PM 35.6 °F 30.7 °F 21.2 °F 56% 30.14 in 10.0 mi North 5.8 mph - N/A   Clear
10:35 PM 35.6 °F 31.7 °F 21.2 °F 56% 30.13 in 10.0 mi NNE 4.6 mph - N/A   Clear
10:55 PM 35.6 °F 30.7 °F 21.2 °F 56% 30.14 in 10.0 mi North 5.8 mph - N/A   Clear
11:15 PM 35.6 °F 28.6 °F 21.2 °F 56% 30.14 in 10.0 mi NNE 9.2 mph - N/A   Clear
11:35 PM 35.6 °F 29.2 °F 19.4 °F 52% 30.14 in 10.0 mi NNE 8.1 mph - N/A   Clear
11:55 PM 33.8 °F 27.0 °F 19.4 °F 56% 30.14 in 10.0 mi NNE 8.1 mph - N/A   Scattered Clouds